Regional Weather Roundup
Issued by NWS

Home | Current Version | Previous Version | Text Only | Print | Product List | Glossary On
Versions: 1 2 3 4 5 6 7 8 9 10 11 12 13 14 15 16 17 18 19 20 21 22 23 24 25 26 27 28 29 30 31 32 33 34 35 36 37 38 39 40 41 42 43 44 45 46 47 48 49 50
857
ASUS44 KLUB 270201
RWRTX
WEST TEXAS WEATHER ROUNDUP
NATIONAL WEATHER SERVICE LUBBOCK TX
900 PM CDT THU MAY 26 2016

NOTE: "FAIR" INDICATES FEW OR NO CLOUDS BELOW 12,000 FEET WITH NO
SIGNIFICANT WEATHER AND/OR OBSTRUCTIONS TO VISIBILITY.

TXZ004-006>008-010-012-014-016-OKZ002-270300-
TEXAS PANHANDLE/OKLAHOMA PANHANDLE

CITY           SKY/WX    TMP DP  RH WIND       PRES   REMARKS
AMARILLO       CLEAR     75  24  15 SW14      29.70S
BORGER         CLEAR     81  23  11 SW14G20   29.64S
CANADIAN       CLOUDY    81  67  61 S21       29.57F THUNDER
DALHART        CLEAR     69  23  17 SW13      29.71R
DUMAS          CLEAR     70  35  27 W9        29.69R
GUYMON         CLEAR     73  33  23 SW15      29.60F
HEREFORD       CLEAR     80  20  10 SW14      29.73R
$$

TXZ026-029-035-045-048-270300-
SOUTHERN PANHANDLE/SOUTH PLAINS/ROLLING PLAINS

CITY           SKY/WX    TMP DP  RH WIND       PRES   REMARKS
CHILDRESS      PTCLDY    78  70  76 SE21G28   29.60F
LUBBOCK        PTCLDY    80  24  12 W10       29.70S
SNYDER           N/A     73  58  59 S17G25    29.70R
$$

TXZ052-054-060>062-072-078-127-140-154-169-270300-
PERMIAN BASIN/CONCHO VALLEY/BIG COUNTRY/EDWARDS PLATEAU

CITY           SKY/WX    TMP DP  RH WIND       PRES   REMARKS
ABILENE        LGT RAIN  68  65  90 SE17G31   29.76F
BROWNWOOD      RAIN      66  64  94 NW14G25   29.81R
JUNCTION       CLOUDY    84  72  67 S12       29.73S
MIDLAND        CLOUDY    83  57  41 S18       29.71R
ODESSA         MOCLDY    83  55  38 SE7       29.71R
SAN ANGELO     PTCLDY    68  64  87 S3        29.72F
WINK           MOCLDY    88  24  10 NW15      29.66R
$$

TXZ055-058-074-075-080-082-270300-
FAR WEST/SOUTHWEST MOUNTAINS/TRANS PECOS

CITY           SKY/WX    TMP DP  RH WIND       PRES   REMARKS
DRYDEN           N/A     79  59  50 E8        29.70R
EL PASO        CLEAR     80   4   5 W22G29    29.81R
FORT STOCKTON  PTCLDY    83  52  34 SE13      29.70R
MARFA          CLEAR     80  13   8 W13       29.85R
PRESIDIO       FAIR      93  22   7 SW18G24   29.68
$$

TXZ014-016-019-021>030-083-270300
TEXAS TECH WEST TEXAS MESONET/TEXAS PANHANDLE/NORTHERN SOUTH PLAINS

CITY           SKY/WX    TMP DP  RH WIND       PRES   REMARKS
ABERNATHY 5ENE   N/A     77  25  14 W12       29.73S
AMARILLO 9NNE    N/A     79  23  13 S14       29.69R
AMARILLO 7SSE    N/A     77  21  12 SW14      29.73R
AMHERST 1NE      N/A     78  20  11 W13       29.75R
BOOTLEG 11WNW    N/A     70  15  12 SW12      29.80R
CANADIAN 6E      N/A     76  65  67 S14G20    29.57F
CAPROCK CYN SP   N/A     78  34  20 SW10      29.67R
CHILDRESS 2NNE   N/A     77  69  76 SE21G29   29.62F
CLARENDON 2WSW   N/A     71  43  35 SW8       29.68R
CLAUDE 12SW      N/A     82  17   9 SW16      29.71S
DIMMITT 2NE      N/A     76  22  13 SW14G21   29.76R
FLOYDADA 2NNE    N/A     75  26  15 W13       29.71R
FRIONA 2NE       N/A     74  21  13 SW13      29.76R
GOODLETT 3W      N/A     76  68  78 SE20G28   29.62S
HART 3N          N/A     77  22  13 SW14      29.75R
HEREFORD 2NW     N/A     77  18  11 SW13      29.76R
MCLEAN 1E        N/A     78  57  48 S6        29.65S
MEMPHIS 1NE      N/A     85  62  46 SE10G16   29.62S
MULESHOE 2SSW    N/A     76  16  10 SW16      29.76R
OLTON 6S         N/A     76  22  13 W13       29.73S
PALO DURO SP     N/A     79  19  10 SW14      29.73R
PAMPA 2E         N/A     76  35  22 S10       29.68S
PLAINVIEW 1S     N/A     80  21  11 SW8       29.72R
SILVERTON 7ESE   N/A     72  34  24 SW10      29.69R
TULIA 2ENE       N/A     79  24  13 SW14      29.73R
TURKEY 2WSW      N/A     81  41  24 SW8       29.65S
UMBARGER 3NNE    N/A     76  21  12 SW13      29.74R
$$

TXZ033>036-039>041-045>048-270300
TEXAS TECH WEST TEXAS MESONET/SOUTH PLAINS

CITY           SKY/WX    TMP DP  RH WIND       PRES   REMARKS
AIKEN 3WSW       N/A     73  32  22 SW10      29.73S
ANDREWS 2NE      N/A     85  23  10 NW10      29.72S
ANTON 6SSW       N/A     80  24  12 SW13      29.73R
BROWNFIELD 2S    N/A     81  22  11 W10       29.73R
DENVR CTY 7WNW   N/A     79  20  11 W18       29.75R
GAIL 2ESE        N/A     76  58  54 S6        29.71R
LAMESA 2SE       N/A     80  54  40 SE9       29.72R
LEVELLAND 4S     N/A     78  21  12 SW12      29.74R
LUBBOCK 3WNW     N/A     81  21  10 W12       29.72S
MORTON 1ENE      N/A     79  18  10 W16       29.75S
ODONNELL 1N      N/A     84  23  10 W10       29.71S
PLAINS 3N        N/A     77  23  13 W13       29.75S
RALLS 1SE        N/A     83  25  12 W13       29.71S
REESE CENTER     N/A     79  21  11 W10       29.73S
SEAGRAVES 1SW    N/A     81  22  11 W12       29.73S
SEMINOLE 2NNE    N/A     83  22  10 W9        29.73R
SLATON 2NE       N/A     83  22  10 W9        29.71R
SNYDER 3E        N/A     73  57  57 S24G32    29.68F
SUNDOWN 8SW      N/A     76  24  14 W10       29.74R
TAHOKA 3NNE      N/A     80  26  13 W10       29.72R
WOLFFORTH 6SSW   N/A     82  22  11 W10       29.73R
$$

TXZ031-032-036>038-042>044-270300-
TEXAS TECH WEST TEXAS MESONET/ROLLING PLAINS

CITY           SKY/WX    TMP DP  RH WIND       PRES   REMARKS
ASPERMONT 3NE    N/A     78  65  66 SE21G32   29.68R
FLUVANNA 3WNW    N/A     76  56  49 S9        29.73R
GRAHAM 5SSW      N/A     80  52  37 S24       29.71R
GUTHRIE 10WSW    N/A     82  59  46 SE12      29.62F
HASKELL 1NW      N/A     74  66  75 SE16G25   29.69R
JAYTON 1SSE      N/A     84  54  35 S15G23    29.64S
KNOX CITY 3NW    N/A     77  66  68 SE25G35   29.66R
LK A HENRY 1NW   N/A     79  55  43 S18G24    29.68R
NORTHFIELD 1S    N/A     80  63  55 S10       29.62S
ODELL 4ENE       N/A     75  68  78 SE33G41   29.68R
PADUCAH 10SW     N/A     80  70  71 SE17G23   29.61F
POST 1NE         N/A     84  47  27 S21G33    29.69R
RRING SPRGS 3N   N/A     79  42  26 SW6       29.66S
SEYMOUR 3NW      N/A     77  65  67 SE22G29   29.66F
SPUR 1W          N/A     80  50  35 S7        29.64
WEINERT 2NNE     N/A     76  68  78 SE22      29.68R
WHITE RVR 6NE    N/A     84  31  14 SW10      29.67S
$$

TXZ052-054-060>062-072-078-127-140-154-169-270300-
TEXAS TECH WEST TEXAS MESONET/PERMIAN BASIN/
CONCHO VALLEY/BIG COUNTRY/EDWARDS PLATEAU

CITY           SKY/WX    TMP DP  RH WIND       PRES   REMARKS
COYANOSA 2N      N/A     90  34  14 W3        29.67R
JUNCTION 1SSW    N/A     83  74  73 SE9       29.74F
MERTZON 3NNE     N/A     69  64  86 E5        29.76R
SAN ANGELO 7NW   N/A     69  62  80 E3        29.72F
STRLNG CT 4WSW   N/A     68  63  85 SE9       29.73F
ST LAWRNCE 5SW   N/A     71  62  74 SE14      29.72R
SWEETWATR 11SW   N/A     69  61  76 SE9       29.75F
WALL 1E          N/A     67  61  82 N2        29.75S
$$

TXZ055-058-074-075-080-082-270300-
TEXAS TECH WEST TEXAS MESONET/FAR WEST/SOUTHWEST MOUNTAINS/TRANS PECOS

CITY           SKY/WX    TMP DP  RH WIND       PRES   REMARKS
PRSMN GAP BBNP   N/A     86  48  27 S18       29.72R
GUADLPE MTN NP   N/A     72  11   9 NW13      29.90S
$$




USA.gov is the U.S. government's official web portal to all federal, state and local government web resources and services.